Location: ??????????
(44.2167°N, 135.5333°E)
Time: 14:00:02
(UTC+00:00)

Cosmos 1606 - Pass Details

Date: 15 June 2025
Orbit: 376 x 385 km, 82.5° (Epoch: 15 July)

Event Time Altitude Azimuth Distance (km) Brightness Sun altitude
Rises 14:38:42 0° 7° (N) 2,257 7.4 -22.3°
Reaches altitude 10° 14:41:08 10° 28° (NNE) 1,398 5.7 -22.3°
Enters shadow 14:42:56 18° 64° (ENE) 1,035 4.4 -22.4°
